NVA1003 SAME-SANR

Flight info

Callsign NVA1003
Flight time 1h 42m
Altitude 18000
Route MEBRA1C MEBRA W3 JUA/N0253F190 W3 LAR Z119 CAT W3 SORTI
Aircraft B190/M-SDFGRY/S

Departure

Time 2026-05-09 20:04
Airport Governor Francisco Gabrielli International Airport (SAME)

Arrival

Time 2026-05-09 21:47
Airport Termas de Río Hondo international Airport (SANR)
Time Latitude Longitude Altitude Speed Heading
2026-05-09 19:51 -32.82879 -68.79658 2315 ft 0 kts 90°
2026-05-09 19:58 -32.82879 -68.79659 2315 ft 0 kts 90°
2026-05-09 19:58 -32.82879 -68.79686 2315 ft 4 kts 89°
2026-05-09 19:59 -32.82880 -68.79718 2315 ft 0 kts 85°
2026-05-09 19:59 -32.82881 -68.79717 2315 ft 0 kts 134°
2026-05-09 19:59 -32.82903 -68.79711 2315 ft 6 kts 172°
2026-05-09 19:59 -32.82932 -68.79668 2315 ft 8 kts 91°
2026-05-09 20:00 -32.82955 -68.79591 2315 ft 12 kts 141°
2026-05-09 20:00 -32.83030 -68.79526 2315 ft 14 kts 150°
2026-05-09 20:00 -32.83137 -68.79511 2315 ft 17 kts 180°
2026-05-09 20:00 -32.83263 -68.79513 2315 ft 19 kts 181°
2026-05-09 20:01 -32.83405 -68.79517 2315 ft 20 kts 180°
2026-05-09 20:01 -32.83556 -68.79519 2315 ft 22 kts 180°
2026-05-09 20:01 -32.83712 -68.79522 2315 ft 22 kts 181°
2026-05-09 20:01 -32.83867 -68.79522 2315 ft 20 kts 180°
2026-05-09 20:02 -32.84010 -68.79520 2315 ft 19 kts 167°
2026-05-09 20:02 -32.84140 -68.79460 2315 ft 20 kts 161°
2026-05-09 20:02 -32.84275 -68.79396 2315 ft 19 kts 148°
2026-05-09 20:03 -32.84412 -68.79315 2315 ft 10 kts 179°
2026-05-09 20:03 -32.84407 -68.79305 2315 ft 4 kts 357°
2026-05-09 20:03 -32.84313 -68.79309 2315 ft 39 kts 358°
2026-05-09 20:03 -32.83820 -68.79295 2315 ft 102 kts
2026-05-09 20:04 -32.82905 -68.79264 2333 ft 150 kts
2026-05-09 20:04 -32.81773 -68.79243 2433 ft 173 kts
2026-05-09 20:04 -32.80602 -68.79214 3088 ft 161 kts
2026-05-09 20:04 -32.79527 -68.79231 3659 ft 157 kts 360°
2026-05-09 20:05 -32.78371 -68.79240 3925 ft 171 kts
2026-05-09 20:05 -32.77243 -68.78914 4456 ft 165 kts 24°
2026-05-09 20:05 -32.76304 -68.78151 4849 ft 170 kts 53°
2026-05-09 20:05 -32.75892 -68.76710 4963 ft 186 kts 83°
2026-05-09 20:06 -32.75690 -68.75347 5782 ft 159 kts 76°
2026-05-09 20:06 -32.75380 -68.74051 6066 ft 170 kts 74°
2026-05-09 20:06 -32.75100 -68.72657 6420 ft 174 kts 77°
2026-05-09 20:06 -32.74820 -68.71228 6778 ft 177 kts 76°
2026-05-09 20:07 -32.74521 -68.69807 7129 ft 179 kts 76°
2026-05-09 20:07 -32.74205 -68.68355 7484 ft 180 kts 75°
2026-05-09 20:07 -32.73889 -68.66932 7827 ft 181 kts 75°
2026-05-09 20:07 -32.73566 -68.65484 8177 ft 181 kts 75°
2026-05-09 20:08 -32.73225 -68.64060 8515 ft 181 kts 65°
2026-05-09 20:08 -32.71355 -68.62199 9218 ft 177 kts 26°
2026-05-09 20:08 -32.70226 -68.61601 9568 ft 176 kts 22°
2026-05-09 20:09 -32.69094 -68.61066 9913 ft 175 kts 21°
2026-05-09 20:09 -32.67947 -68.60548 10263 ft 174 kts 20°
2026-05-09 20:09 -32.66808 -68.60043 10613 ft 172 kts 20°
2026-05-09 20:09 -32.65684 -68.59551 10960 ft 170 kts 20°
2026-05-09 20:10 -32.64586 -68.59071 11302 ft 168 kts 20°
2026-05-09 20:10 -32.63480 -68.58588 11651 ft 165 kts 20°
2026-05-09 20:10 -32.62396 -68.58116 11997 ft 162 kts 19°
2026-05-09 20:10 -32.61353 -68.57661 12325 ft 160 kts 19°
2026-05-09 20:11 -32.60309 -68.57204 12608 ft 160 kts 19°
2026-05-09 20:11 -32.59234 -68.56735 12884 ft 161 kts 19°
2026-05-09 20:11 -32.58184 -68.56277 13151 ft 161 kts 18°
2026-05-09 20:11 -32.57125 -68.55815 13413 ft 162 kts 18°
2026-05-09 20:12 -32.56062 -68.55352 13669 ft 163 kts 18°
2026-05-09 20:12 -32.54975 -68.54879 13924 ft 163 kts 18°
2026-05-09 20:12 -32.53900 -68.54411 14169 ft 164 kts 18°
2026-05-09 20:12 -32.52815 -68.53939 14409 ft 165 kts 18°
2026-05-09 20:13 -32.51746 -68.53474 14639 ft 165 kts 17°
2026-05-09 20:13 -32.50645 -68.52995 14824 ft 169 kts 17°
2026-05-09 20:13 -32.49505 -68.52500 15015 ft 172 kts 17°
2026-05-09 20:13 -32.48379 -68.52010 15218 ft 173 kts 17°
2026-05-09 20:14 -32.47229 -68.51510 15424 ft 175 kts 17°
2026-05-09 20:14 -32.46077 -68.51008 15628 ft 175 kts 17°
2026-05-09 20:14 -32.44917 -68.50504 15832 ft 176 kts 17°
2026-05-09 20:14 -32.43775 -68.50008 15999 ft 179 kts 17°
2026-05-09 20:15 -32.42558 -68.49480 16028 ft 189 kts 17°
2026-05-09 20:15 -32.41284 -68.48922 16031 ft 198 kts 17°
2026-05-09 20:15 -32.39955 -68.48332 16030 ft 205 kts 18°
2026-05-09 20:15 -32.38583 -68.47720 16028 ft 212 kts 18°
2026-05-09 20:16 -32.37186 -68.47102 16026 ft 217 kts 18°
2026-05-09 20:16 -32.35739 -68.46465 16025 ft 221 kts 18°
2026-05-09 20:16 -32.34263 -68.45818 16024 ft 225 kts 18°
2026-05-09 20:16 -32.32782 -68.45170 16023 ft 228 kts 18°
2026-05-09 20:17 -32.31296 -68.44522 16023 ft 230 kts 18°
2026-05-09 20:17 -32.29762 -68.43855 16022 ft 232 kts 18°
2026-05-09 20:17 -32.28241 -68.43193 16022 ft 233 kts 18°
2026-05-09 20:17 -32.26691 -68.42520 16021 ft 235 kts 18°
2026-05-09 20:18 -32.25139 -68.41848 16021 ft 235 kts 18°
2026-05-09 20:18 -32.23588 -68.41176 16021 ft 236 kts 18°
2026-05-09 20:18 -32.22028 -68.40500 16021 ft 237 kts 18°
2026-05-09 20:18 -32.20483 -68.39831 16021 ft 237 kts 18°
2026-05-09 20:19 -32.18911 -68.39151 16020 ft 238 kts 18°
2026-05-09 20:19 -32.17343 -68.38473 16023 ft 239 kts 18°
2026-05-09 20:19 -32.15838 -68.37820 16324 ft 227 kts 18°
2026-05-09 20:19 -32.14328 -68.37167 16367 ft 228 kts 17°
2026-05-09 20:20 -32.12811 -68.36513 16373 ft 231 kts 17°
2026-05-09 20:20 -32.11282 -68.35854 16374 ft 234 kts 18°
2026-05-09 20:20 -32.09739 -68.35189 16374 ft 236 kts 18°
2026-05-09 20:20 -32.08180 -68.34516 16370 ft 237 kts 17°
2026-05-09 20:21 -32.06588 -68.33878 16353 ft 237 kts
2026-05-09 20:21 -32.04959 -68.33859 16371 ft 232 kts 352°
2026-05-09 20:21 -32.03357 -68.34054 16369 ft 233 kts 350°
2026-05-09 20:21 -32.01713 -68.34293 16369 ft 233 kts 349°
2026-05-09 20:22 -32.00105 -68.34544 16369 ft 233 kts 349°
2026-05-09 20:22 -31.98460 -68.34809 16368 ft 234 kts 349°
2026-05-09 20:22 -31.96855 -68.35074 16368 ft 234 kts 349°
2026-05-09 20:22 -31.95225 -68.35346 16368 ft 234 kts 349°
2026-05-09 20:23 -31.93580 -68.35623 16368 ft 235 kts 349°
2026-05-09 20:23 -31.91955 -68.35898 16368 ft 235 kts 349°
2026-05-09 20:23 -31.90346 -68.36170 16368 ft 235 kts 349°
2026-05-09 20:23 -31.88693 -68.36451 16368 ft 235 kts 349°
2026-05-09 20:24 -31.87073 -68.36725 16368 ft 235 kts 349°
2026-05-09 20:24 -31.85435 -68.37003 16368 ft 235 kts 349°
2026-05-09 20:24 -31.83798 -68.37280 16368 ft 235 kts 349°
2026-05-09 20:24 -31.82168 -68.37556 16368 ft 235 kts 349°
2026-05-09 20:25 -31.80524 -68.37835 16368 ft 235 kts 349°
2026-05-09 20:25 -31.78887 -68.38113 16368 ft 235 kts 349°
2026-05-09 20:25 -31.77248 -68.38390 16368 ft 235 kts 349°
2026-05-09 20:25 -31.75624 -68.38666 16368 ft 235 kts 349°
2026-05-09 20:26 -31.73993 -68.38941 16368 ft 235 kts 349°
2026-05-09 20:26 -31.72342 -68.39221 16368 ft 235 kts 349°
2026-05-09 20:26 -31.70685 -68.39520 16054 ft 249 kts 351°
2026-05-09 20:26 -31.68974 -68.39818 16008 ft 249 kts 352°
2026-05-09 20:27 -31.67228 -68.40103 15998 ft 247 kts 352°
2026-05-09 20:27 -31.65507 -68.40386 15996 ft 245 kts 352°
2026-05-09 20:27 -31.63831 -68.40665 15996 ft 244 kts 352°
2026-05-09 20:27 -31.62118 -68.40951 15997 ft 243 kts 352°
2026-05-09 20:28 -31.60434 -68.41234 15997 ft 242 kts 352°
2026-05-09 20:28 -31.58754 -68.41517 15997 ft 241 kts 352°
2026-05-09 20:28 -31.57083 -68.41589 15997 ft 239 kts 15°
2026-05-09 20:29 -31.54069 -68.39864 16007 ft 242 kts 30°
2026-05-09 20:29 -31.52579 -68.38895 16141 ft 241 kts 31°
2026-05-09 20:29 -31.51138 -68.37884 16348 ft 237 kts 30°
2026-05-09 20:29 -31.49757 -68.36798 16379 ft 242 kts 39°
2026-05-09 20:30 -31.48272 -68.35654 16056 ft 258 kts 31°
2026-05-09 20:30 -31.46711 -68.34548 16007 ft 260 kts 32°
2026-05-09 20:30 -31.45165 -68.33418 15999 ft 261 kts 33°
2026-05-09 20:30 -31.43625 -68.32270 15998 ft 261 kts 33°
2026-05-09 20:31 -31.42093 -68.31116 15997 ft 261 kts 33°
2026-05-09 20:31 -31.40530 -68.29932 15997 ft 261 kts 33°
2026-05-09 20:31 -31.39008 -68.28774 15997 ft 261 kts 33°
2026-05-09 20:31 -31.37468 -68.27603 15997 ft 261 kts 33°
2026-05-09 20:32 -31.35921 -68.26424 15997 ft 261 kts 33°
2026-05-09 20:32 -31.34372 -68.25246 15997 ft 261 kts 33°
2026-05-09 20:32 -31.32863 -68.24097 15997 ft 261 kts 33°
2026-05-09 20:32 -31.31309 -68.22914 15997 ft 261 kts 33°
2026-05-09 20:33 -31.29771 -68.21743 15997 ft 261 kts 33°
2026-05-09 20:33 -31.28223 -68.20567 15997 ft 261 kts 33°
2026-05-09 20:33 -31.26673 -68.19388 15997 ft 261 kts 33°
2026-05-09 20:33 -31.25133 -68.18218 15997 ft 261 kts 33°
2026-05-09 20:34 -31.23595 -68.17049 15997 ft 261 kts 33°
2026-05-09 20:34 -31.22033 -68.15874 15998 ft 261 kts 32°
2026-05-09 20:34 -31.20492 -68.14743 15999 ft 261 kts 32°
2026-05-09 20:34 -31.18955 -68.13601 15999 ft 261 kts 32°
2026-05-09 20:35 -31.17384 -68.12424 16000 ft 261 kts 32°
2026-05-09 20:35 -31.15838 -68.11259 16000 ft 261 kts 32°
2026-05-09 20:35 -31.14287 -68.10088 15999 ft 261 kts 33°
2026-05-09 20:35 -31.12756 -68.08929 15999 ft 261 kts 33°
2026-05-09 20:36 -31.11211 -68.07761 15999 ft 261 kts 33°
2026-05-09 20:36 -31.09673 -68.06598 15999 ft 261 kts 33°
2026-05-09 20:36 -31.08124 -68.05426 15999 ft 261 kts 33°
2026-05-09 20:36 -31.06585 -68.04263 15999 ft 261 kts 33°
2026-05-09 20:37 -31.05061 -68.03111 15999 ft 261 kts 33°
2026-05-09 20:37 -31.03504 -68.01936 15999 ft 261 kts 33°
2026-05-09 20:37 -31.01953 -68.00764 15999 ft 261 kts 33°
2026-05-09 20:37 -31.00414 -67.99601 15999 ft 261 kts 33°
2026-05-09 20:38 -30.98886 -67.98448 15999 ft 261 kts 33°
2026-05-09 20:38 -30.97355 -67.97293 15999 ft 261 kts 33°
2026-05-09 20:38 -30.95797 -67.96117 15999 ft 261 kts 33°
2026-05-09 20:38 -30.94269 -67.94966 15999 ft 261 kts 33°
2026-05-09 20:39 -30.92710 -67.93790 15999 ft 261 kts 33°
2026-05-09 20:39 -30.91182 -67.92639 15999 ft 261 kts 33°
2026-05-09 20:39 -30.89626 -67.91469 15999 ft 261 kts 33°
2026-05-09 20:39 -30.88105 -67.90324 15999 ft 261 kts 33°
2026-05-09 20:40 -30.86550 -67.89154 15999 ft 261 kts 33°
2026-05-09 20:40 -30.85021 -67.88004 15999 ft 261 kts 33°
2026-05-09 20:40 -30.83469 -67.86838 15999 ft 261 kts 33°
2026-05-09 20:40 -30.81931 -67.85682 15999 ft 261 kts 33°
2026-05-09 20:41 -30.80377 -67.84515 15999 ft 261 kts 33°
2026-05-09 20:41 -30.78851 -67.83368 15999 ft 261 kts 33°
2026-05-09 20:41 -30.77306 -67.82208 15999 ft 261 kts 33°
2026-05-09 20:41 -30.75777 -67.81062 15999 ft 261 kts 33°
2026-05-09 20:42 -30.74224 -67.79896 15999 ft 261 kts 33°
2026-05-09 20:42 -30.72693 -67.78749 15999 ft 261 kts 33°
2026-05-09 20:42 -30.71134 -67.77580 15999 ft 261 kts 33°
2026-05-09 20:42 -30.69604 -67.76434 15999 ft 261 kts 33°
2026-05-09 20:43 -30.68049 -67.75269 15999 ft 261 kts 33°
2026-05-09 20:43 -30.66518 -67.74123 15999 ft 261 kts 33°
2026-05-09 20:43 -30.64968 -67.72963 15999 ft 261 kts 33°
2026-05-09 20:43 -30.63439 -67.71819 15999 ft 261 kts 33°
2026-05-09 20:44 -30.61873 -67.70649 15999 ft 261 kts 33°
2026-05-09 20:44 -30.60335 -67.69499 15999 ft 261 kts 33°
2026-05-09 20:44 -30.58791 -67.68345 15999 ft 261 kts 33°
2026-05-09 20:44 -30.57251 -67.67195 15999 ft 261 kts 33°
2026-05-09 20:45 -30.55703 -67.66039 15999 ft 261 kts 33°
2026-05-09 20:45 -30.54180 -67.64902 15999 ft 261 kts 33°
2026-05-09 20:45 -30.52622 -67.63741 15999 ft 261 kts 33°
2026-05-09 20:45 -30.51079 -67.62590 15999 ft 261 kts 33°
2026-05-09 20:46 -30.49550 -67.61451 15999 ft 261 kts 33°
2026-05-09 20:46 -30.48004 -67.60299 15999 ft 261 kts 33°
2026-05-09 20:46 -30.46454 -67.59145 15999 ft 261 kts 33°
2026-05-09 20:46 -30.44898 -67.57986 15999 ft 261 kts 33°
2026-05-09 20:47 -30.43362 -67.56843 15999 ft 261 kts 33°
2026-05-09 20:47 -30.41810 -67.55688 15999 ft 261 kts 33°
2026-05-09 20:47 -30.40261 -67.54536 15999 ft 261 kts 33°
2026-05-09 20:47 -30.38721 -67.53391 15999 ft 261 kts 33°
2026-05-09 20:48 -30.37187 -67.52252 15999 ft 261 kts 33°
2026-05-09 20:48 -30.35638 -67.51102 15999 ft 261 kts 33°
2026-05-09 20:48 -30.34099 -67.49959 15999 ft 261 kts 33°
2026-05-09 20:48 -30.32564 -67.48820 15999 ft 261 kts 33°
2026-05-09 20:49 -30.31024 -67.47677 15999 ft 261 kts 33°
2026-05-09 20:49 -30.29498 -67.46545 15999 ft 261 kts 33°
2026-05-09 20:49 -30.27937 -67.45387 15999 ft 261 kts 33°
2026-05-09 20:49 -30.26388 -67.44240 15999 ft 261 kts 33°
2026-05-09 20:50 -30.24846 -67.43098 15999 ft 261 kts 33°
2026-05-09 20:50 -30.23323 -67.41969 15999 ft 261 kts 33°
2026-05-09 20:50 -30.21758 -67.40811 15999 ft 261 kts 33°
2026-05-09 20:50 -30.20226 -67.39677 15999 ft 261 kts 33°
2026-05-09 20:51 -30.18668 -67.38525 15999 ft 261 kts 33°
2026-05-09 20:51 -30.17124 -67.37383 15999 ft 261 kts 33°
2026-05-09 20:51 -30.15594 -67.36253 15999 ft 261 kts 33°
2026-05-09 20:51 -30.14035 -67.35101 15999 ft 261 kts 33°
2026-05-09 20:52 -30.12516 -67.33979 15999 ft 261 kts 32°
2026-05-09 20:52 -30.10964 -67.32834 15999 ft 261 kts 32°
2026-05-09 20:52 -30.09413 -67.31689 15999 ft 261 kts 32°
2026-05-09 20:52 -30.07855 -67.30540 15999 ft 261 kts 32°
2026-05-09 20:53 -30.06325 -67.29411 15999 ft 261 kts 32°
2026-05-09 20:53 -30.04783 -67.28275 15999 ft 261 kts 32°
2026-05-09 20:53 -30.03231 -67.27131 15999 ft 261 kts 32°
2026-05-09 20:53 -30.01674 -67.25984 15999 ft 261 kts 32°
2026-05-09 20:54 -30.00157 -67.24867 15999 ft 261 kts 32°
2026-05-09 20:54 -29.98597 -67.23719 15999 ft 261 kts 32°
2026-05-09 20:54 -29.97041 -67.22574 15999 ft 261 kts 32°
2026-05-09 20:54 -29.95495 -67.21437 15999 ft 261 kts 32°
2026-05-09 20:55 -29.93971 -67.20316 15999 ft 261 kts 32°
2026-05-09 20:55 -29.92414 -67.19173 15999 ft 261 kts 32°
2026-05-09 20:55 -29.90867 -67.18035 15999 ft 261 kts 32°
2026-05-09 20:55 -29.89331 -67.16907 15999 ft 261 kts 32°
2026-05-09 20:56 -29.87764 -67.15757 15999 ft 261 kts 32°
2026-05-09 20:56 -29.84673 -67.13489 15999 ft 261 kts 32°
2026-05-09 20:56 -29.83126 -67.12354 15999 ft 261 kts 32°
2026-05-09 20:57 -29.81574 -67.11217 15999 ft 261 kts 32°
2026-05-09 20:57 -29.80051 -67.10101 15999 ft 261 kts 32°
2026-05-09 20:57 -29.78493 -67.08958 15999 ft 261 kts 32°
2026-05-09 20:57 -29.76947 -67.07826 15999 ft 261 kts 32°
2026-05-09 20:58 -29.75397 -67.06692 15999 ft 261 kts 32°
2026-05-09 20:58 -29.73861 -67.05567 15999 ft 261 kts 32°
2026-05-09 20:58 -29.72295 -67.04421 15999 ft 261 kts 32°
2026-05-09 20:58 -29.70762 -67.03301 15999 ft 261 kts 32°
2026-05-09 20:59 -29.69219 -67.02172 15999 ft 261 kts 32°
2026-05-09 20:59 -29.67660 -67.01033 15999 ft 261 kts 32°
2026-05-09 20:59 -29.66114 -66.99903 15999 ft 261 kts 32°
2026-05-09 21:00 -29.63028 -66.97649 15999 ft 261 kts 32°
2026-05-09 21:00 -29.61461 -66.96506 15999 ft 262 kts 32°
2026-05-09 21:00 -29.59927 -66.95387 15999 ft 262 kts 32°
2026-05-09 21:00 -29.58383 -66.94261 15999 ft 262 kts 32°
2026-05-09 21:01 -29.56822 -66.93124 15999 ft 262 kts 32°
2026-05-09 21:01 -29.55274 -66.91995 15999 ft 262 kts 32°
2026-05-09 21:01 -29.53734 -66.90874 15999 ft 262 kts 32°
2026-05-09 21:02 -29.50633 -66.88616 15999 ft 262 kts 32°
2026-05-09 21:02 -29.49083 -66.87488 15999 ft 262 kts 32°
2026-05-09 21:02 -29.47533 -66.86361 15999 ft 262 kts 32°
2026-05-09 21:02 -29.45982 -66.85233 15999 ft 262 kts 32°
2026-05-09 21:03 -29.44416 -66.84095 15999 ft 262 kts 32°
2026-05-09 21:03 -29.42869 -66.82971 15999 ft 262 kts 32°
2026-05-09 21:03 -29.41313 -66.81840 15999 ft 262 kts 32°
2026-05-09 21:03 -29.39783 -66.80723 15997 ft 262 kts 35°
2026-05-09 21:04 -29.38445 -66.79278 16005 ft 261 kts 47°
2026-05-09 21:04 -29.37212 -66.77704 16000 ft 261 kts 48°
2026-05-09 21:04 -29.35990 -66.76108 16000 ft 262 kts 49°
2026-05-09 21:04 -29.34804 -66.74544 16000 ft 262 kts 49°
2026-05-09 21:05 -29.33591 -66.72939 15999 ft 262 kts 49°
2026-05-09 21:05 -29.32390 -66.71345 15999 ft 262 kts 49°
2026-05-09 21:05 -29.31200 -66.69767 15999 ft 262 kts 49°
2026-05-09 21:05 -29.30005 -66.68179 15999 ft 262 kts 49°
2026-05-09 21:06 -29.28794 -66.66572 15999 ft 262 kts 49°
2026-05-09 21:06 -29.27586 -66.64968 15999 ft 262 kts 49°
2026-05-09 21:06 -29.26388 -66.63379 15999 ft 262 kts 49°
2026-05-09 21:06 -29.25201 -66.61803 15999 ft 262 kts 49°
2026-05-09 21:07 -29.23988 -66.60194 15999 ft 262 kts 49°
2026-05-09 21:07 -29.22794 -66.58612 15999 ft 262 kts 49°
2026-05-09 21:07 -29.21579 -66.57001 15999 ft 262 kts 49°
2026-05-09 21:07 -29.20383 -66.55416 15999 ft 262 kts 49°
2026-05-09 21:08 -29.19179 -66.53822 15999 ft 262 kts 49°
2026-05-09 21:08 -29.17968 -66.52219 15999 ft 262 kts 49°
2026-05-09 21:08 -29.16777 -66.50642 15999 ft 262 kts 49°
2026-05-09 21:08 -29.15585 -66.49065 15999 ft 262 kts 49°
2026-05-09 21:09 -29.14376 -66.47466 15999 ft 262 kts 49°
2026-05-09 21:09 -29.13174 -66.45878 15999 ft 262 kts 49°
2026-05-09 21:09 -29.11978 -66.44298 15999 ft 262 kts 49°
2026-05-09 21:09 -29.10781 -66.42718 15999 ft 262 kts 49°
2026-05-09 21:10 -29.09558 -66.41102 15999 ft 262 kts 49°
2026-05-09 21:10 -29.08354 -66.39513 15999 ft 262 kts 49°
2026-05-09 21:10 -29.07150 -66.37926 15999 ft 262 kts 49°
2026-05-09 21:10 -29.05955 -66.36350 15999 ft 262 kts 49°
2026-05-09 21:11 -29.04746 -66.34757 15999 ft 262 kts 49°
2026-05-09 21:12 -28.99934 -66.28426 15999 ft 262 kts 49°
2026-05-09 21:12 -28.98722 -66.26833 15999 ft 262 kts 49°
2026-05-09 21:12 -28.97527 -66.25262 15999 ft 262 kts 49°
2026-05-09 21:12 -28.96322 -66.23680 15999 ft 262 kts 49°
2026-05-09 21:13 -28.95112 -66.22091 15999 ft 262 kts 49°
2026-05-09 21:13 -28.93888 -66.20484 15999 ft 262 kts 49°
2026-05-09 21:13 -28.92685 -66.18906 15999 ft 262 kts 49°
2026-05-09 21:13 -28.91487 -66.17335 15999 ft 262 kts 49°
2026-05-09 21:14 -28.90283 -66.15756 15999 ft 262 kts 49°
2026-05-09 21:14 -28.89086 -66.14188 15999 ft 262 kts 49°
2026-05-09 21:14 -28.87855 -66.12575 15999 ft 262 kts 49°
2026-05-09 21:14 -28.86645 -66.10991 15999 ft 262 kts 49°
2026-05-09 21:15 -28.85455 -66.09433 15999 ft 262 kts 49°
2026-05-09 21:15 -28.84247 -66.07852 15999 ft 262 kts 49°
2026-05-09 21:15 -28.83023 -66.06251 15999 ft 262 kts 49°
2026-05-09 21:15 -28.81821 -66.04679 15999 ft 262 kts 49°
2026-05-09 21:16 -28.80600 -66.03083 15999 ft 262 kts 49°
2026-05-09 21:16 -28.79400 -66.01517 15999 ft 262 kts 49°
2026-05-09 21:16 -28.78190 -65.99935 15999 ft 262 kts 49°
2026-05-09 21:16 -28.76981 -65.98357 15999 ft 262 kts 49°
2026-05-09 21:17 -28.75757 -65.96760 15999 ft 262 kts 49°
2026-05-09 21:17 -28.74565 -65.95206 15999 ft 262 kts 49°
2026-05-09 21:17 -28.73354 -65.93626 15999 ft 262 kts 49°
2026-05-09 21:17 -28.72124 -65.92024 15999 ft 262 kts 49°
2026-05-09 21:18 -28.70913 -65.90445 15999 ft 262 kts 49°
2026-05-09 21:18 -28.69690 -65.88852 15999 ft 262 kts 49°
2026-05-09 21:18 -28.68487 -65.87286 15999 ft 262 kts 49°
2026-05-09 21:18 -28.67273 -65.85706 15999 ft 262 kts 49°
2026-05-09 21:19 -28.63620 -65.80956 15999 ft 262 kts 49°
2026-05-09 21:19 -28.62411 -65.79385 15999 ft 262 kts 49°
2026-05-09 21:20 -28.61186 -65.77792 15999 ft 262 kts 49°
2026-05-09 21:20 -28.59972 -65.76217 15999 ft 262 kts 49°
2026-05-09 21:20 -28.58626 -65.74814 15996 ft 261 kts 29°
2026-05-09 21:20 -28.56949 -65.73953 16002 ft 262 kts 21°
2026-05-09 21:21 -28.55228 -65.73222 16000 ft 262 kts 20°
2026-05-09 21:21 -28.53492 -65.72529 16000 ft 262 kts 19°
2026-05-09 21:21 -28.51764 -65.71858 16000 ft 262 kts 19°
2026-05-09 21:21 -28.50008 -65.71188 16000 ft 262 kts 18°
2026-05-09 21:22 -28.48259 -65.70527 16000 ft 262 kts 18°
2026-05-09 21:22 -28.46510 -65.69868 16000 ft 262 kts 18°
2026-05-09 21:22 -28.44762 -65.69213 16000 ft 262 kts 18°
2026-05-09 21:22 -28.43026 -65.68563 15999 ft 262 kts 18°
2026-05-09 21:23 -28.41265 -65.67904 15999 ft 262 kts 18°
2026-05-09 21:23 -28.39507 -65.67247 15999 ft 262 kts 18°
2026-05-09 21:23 -28.37742 -65.66588 15999 ft 262 kts 18°
2026-05-09 21:23 -28.35997 -65.65936 15999 ft 262 kts 18°
2026-05-09 21:24 -28.34252 -65.65286 15999 ft 262 kts 18°
2026-05-09 21:24 -28.32489 -65.64628 15999 ft 262 kts 18°
2026-05-09 21:24 -28.30730 -65.63972 15999 ft 262 kts 18°
2026-05-09 21:24 -28.28980 -65.63319 15999 ft 262 kts 18°
2026-05-09 21:25 -28.27237 -65.62670 15999 ft 262 kts 18°
2026-05-09 21:25 -28.25481 -65.62015 15999 ft 262 kts 18°
2026-05-09 21:25 -28.23715 -65.61358 15999 ft 262 kts 18°
2026-05-09 21:25 -28.21963 -65.60706 15999 ft 262 kts 18°
2026-05-09 21:26 -28.20225 -65.60059 15999 ft 262 kts 18°
2026-05-09 21:26 -28.18468 -65.59405 15999 ft 262 kts 18°
2026-05-09 21:26 -28.16718 -65.58755 15999 ft 262 kts 18°
2026-05-09 21:26 -28.14945 -65.58096 15961 ft 264 kts 18°
2026-05-09 21:27 -28.13157 -65.57431 15704 ft 273 kts 18°
2026-05-09 21:27 -28.11330 -65.56752 15461 ft 279 kts 18°
2026-05-09 21:27 -28.09443 -65.56052 15213 ft 283 kts 18°
2026-05-09 21:27 -28.07532 -65.55342 14962 ft 286 kts 18°
2026-05-09 21:28 -28.05637 -65.54639 14715 ft 288 kts 18°
2026-05-09 21:28 -28.03709 -65.53925 14465 ft 289 kts 18°
2026-05-09 21:28 -28.01777 -65.53208 14214 ft 290 kts 18°
2026-05-09 21:28 -27.99813 -65.52480 13959 ft 290 kts 18°
2026-05-09 21:29 -27.97873 -65.51762 13706 ft 290 kts 18°
2026-05-09 21:29 -27.95968 -65.51057 13457 ft 290 kts 18°
2026-05-09 21:29 -27.94031 -65.50339 13199 ft 286 kts 18°
2026-05-09 21:29 -27.92123 -65.49633 12942 ft 283 kts 18°
2026-05-09 21:30 -27.90263 -65.48946 12691 ft 281 kts 18°
2026-05-09 21:30 -27.88399 -65.48257 12438 ft 280 kts 18°
2026-05-09 21:30 -27.86527 -65.47566 12184 ft 279 kts 18°
2026-05-09 21:30 -27.84667 -65.46879 11931 ft 278 kts 18°
2026-05-09 21:31 -27.82819 -65.46196 11679 ft 278 kts 18°
2026-05-09 21:31 -27.80965 -65.45512 11427 ft 277 kts 18°
2026-05-09 21:31 -27.79112 -65.44827 11174 ft 277 kts 18°
2026-05-09 21:31 -27.77254 -65.44142 10921 ft 277 kts 18°
2026-05-09 21:32 -27.75409 -65.43462 10669 ft 277 kts 18°
2026-05-09 21:32 -27.73554 -65.42741 10403 ft 277 kts 25°
2026-05-09 21:32 -27.72060 -65.41353 10159 ft 276 kts 48°
2026-05-09 21:32 -27.70875 -65.39627 9905 ft 276 kts 56°
2026-05-09 21:33 -27.69901 -65.37756 9656 ft 276 kts 62°
2026-05-09 21:33 -27.68999 -65.35800 9402 ft 276 kts 63°
2026-05-09 21:33 -27.68117 -65.33834 9144 ft 272 kts 63°
2026-05-09 21:33 -27.67274 -65.31949 8880 ft 262 kts 63°
2026-05-09 21:34 -27.66449 -65.30108 8618 ft 255 kts 63°
2026-05-09 21:34 -27.65658 -65.28342 8364 ft 251 kts 63°
2026-05-09 21:34 -27.64860 -65.26560 8104 ft 247 kts 63°
2026-05-09 21:34 -27.64083 -65.24828 7851 ft 245 kts 63°
2026-05-09 21:35 -27.63303 -65.23086 7594 ft 243 kts 63°
2026-05-09 21:35 -27.62540 -65.21387 7343 ft 242 kts 63°
2026-05-09 21:35 -27.61762 -65.19653 7087 ft 241 kts 63°
2026-05-09 21:35 -27.61003 -65.17961 6836 ft 241 kts 63°
2026-05-09 21:36 -27.60234 -65.16248 6581 ft 240 kts 63°
2026-05-09 21:36 -27.59473 -65.14552 6329 ft 240 kts 63°
2026-05-09 21:36 -27.58703 -65.12840 6075 ft 240 kts 63°
2026-05-09 21:36 -27.57945 -65.11153 5823 ft 240 kts 63°
2026-05-09 21:37 -27.57187 -65.09467 5572 ft 239 kts 63°
2026-05-09 21:37 -27.56424 -65.07772 5319 ft 239 kts 63°
2026-05-09 21:37 -27.55661 -65.06075 5066 ft 239 kts 63°
2026-05-09 21:37 -27.54896 -65.04376 4812 ft 239 kts 63°
2026-05-09 21:38 -27.54135 -65.02689 4560 ft 239 kts 63°
2026-05-09 21:38 -27.53382 -65.01016 4310 ft 239 kts 63°
2026-05-09 21:38 -27.52611 -64.99307 4062 ft 238 kts 63°
2026-05-09 21:38 -27.51864 -64.97651 4003 ft 230 kts 63°
2026-05-09 21:39 -27.51147 -64.96062 3995 ft 223 kts 63°
2026-05-09 21:39 -27.50179 -64.94724 3994 ft 217 kts 30°
2026-05-09 21:39 -27.48763 -64.94121 3877 ft 219 kts
2026-05-09 21:39 -27.47230 -64.94120 3740 ft 221 kts 352°
2026-05-09 21:40 -27.45708 -64.94455 3594 ft 222 kts 346°
2026-05-09 21:40 -27.44190 -64.94908 3445 ft 224 kts 344°
2026-05-09 21:40 -27.42666 -64.95392 3294 ft 225 kts 344°
2026-05-09 21:40 -27.41151 -64.95881 3205 ft 222 kts 344°
2026-05-09 21:41 -27.39662 -64.96362 3201 ft 218 kts 344°
2026-05-09 21:41 -27.38208 -64.96833 3196 ft 214 kts 344°
2026-05-09 21:41 -27.36760 -64.97302 3193 ft 212 kts 344°
2026-05-09 21:41 -27.35348 -64.97759 3191 ft 211 kts 344°
2026-05-09 21:42 -27.33911 -64.97851 3169 ft 209 kts 19°
2026-05-09 21:42 -27.32835 -64.96787 3182 ft 206 kts 64°
2026-05-09 21:42 -27.32738 -64.95199 3193 ft 204 kts 109°
2026-05-09 21:42 -27.33635 -64.94007 3204 ft 203 kts 153°
2026-05-09 21:43 -27.35026 -64.93813 3230 ft 201 kts 188°
2026-05-09 21:43 -27.36426 -64.94004 3146 ft 207 kts 184°
2026-05-09 21:43 -27.37907 -64.94064 3051 ft 211 kts 180°
2026-05-09 21:43 -27.39347 -64.94052 2933 ft 196 kts 179°
2026-05-09 21:44 -27.40635 -64.93980 2750 ft 175 kts 171°
2026-05-09 21:44 -27.41813 -64.93719 2462 ft 153 kts 168°
2026-05-09 21:44 -27.42801 -64.93481 2160 ft 137 kts 167°
2026-05-09 21:44 -27.43653 -64.93288 1857 ft 123 kts 172°
2026-05-09 21:45 -27.44503 -64.93269 1492 ft 114 kts 183°
2026-05-09 21:45 -27.45294 -64.93329 1398 ft 115 kts 184°
2026-05-09 21:45 -27.46123 -64.93419 1325 ft 121 kts 184°
2026-05-09 21:45 -27.46981 -64.93465 1206 ft 122 kts 182°
2026-05-09 21:46 -27.47818 -64.93504 1079 ft 119 kts 182°
2026-05-09 21:46 -27.48658 -64.93546 944 ft 114 kts 181°
2026-05-09 21:46 -27.49382 -64.93574 924 ft 94 kts 178°
2026-05-09 21:46 -27.49864 -64.93602 923 ft 52 kts 182°
2026-05-09 21:47 -27.50146 -64.93620 923 ft 28 kts 183°
2026-05-09 21:47 -27.50201 -64.93540 923 ft 10 kts 88°
2026-05-09 21:47 -27.50203 -64.93452 923 ft 10 kts 94°
2026-05-09 21:47 -27.50208 -64.93365 923 ft 11 kts 95°
2026-05-09 21:48 -27.50221 -64.93280 923 ft 10 kts 143°
2026-05-09 21:48 -27.50289 -64.93278 923 ft 9 kts 183°
2026-05-09 21:48 -27.50356 -64.93284 923 ft 9 kts 185°
2026-05-09 21:48 -27.50421 -64.93287 923 ft 9 kts 181°
2026-05-09 21:49 -27.50484 -64.93290 923 ft 9 kts 185°
2026-05-09 21:49 -27.50529 -64.93295 923 ft 4 kts 203°
2026-05-09 21:49 -27.50542 -64.93310 923 ft 3 kts 235°
2026-05-09 21:49 -27.50559 -64.93327 923 ft 3 kts 181°
2026-05-09 21:50 -27.50575 -64.93315 923 ft 2 kts 138°
2026-05-09 21:50 -27.50575 -64.93314 923 ft 0 kts 137°